Location: Newark
(40.9833°N, 0.0333°W)
Time: 16:19:41
(UTC+00:00)

Altair - Pass Details

Date: 30 October 2020
Orbit: 1502 x 1682 km, 47.2° (Epoch: 23 November)

Event Time Altitude Azimuth Distance (km) Brightness Sun altitude
Rises 11:16:03 0° 298° (WNW) 4,775 9.8 34.6°
Reaches altitude 10° 11:19:12 10° 293° (WNW) 3,813 9.4 34.7°
Maximum altitude 11:28:27 50° 222° (SW) 1,999 9.2 34.9°
Drops below altitude 10° 11:37:58 10° 150° (SSE) 3,916 10.7 35.0°
Sets 11:41:16 0° 146° (SE) 4,912 10.9 35.0°
